Location: Fairmont
(43.6520°N, 94.4610°W)
Time: 20:23:09
(UTC-05:00)

Cosmos-2242 - Visible Passes

Search period start: 03 August 2015 00:00
Search period end: 13 August 2015 00:00
Orbit: 594 x 620 km, 82.5° (Epoch: 03 August)

Date Brightness Start Highest point End Pass type
(mag) Time Alt. Az. Time Alt. Az. Time Alt. Az.
03 Aug 5.7 01:18:25 10° ENE 01:18:25 10° ENE 01:18:54 10° ENE visible
03 Aug 3.3 02:55:20 64° NW 02:55:20 64° NW 02:59:17 10° N visible
04 Aug 5.3 01:32:03 17° ENE 01:32:03 17° ENE 01:34:12 10° NE visible
04 Aug 3.9 03:08:58 40° WNW 03:08:58 40° WNW 03:12:42 10° N visible
05 Aug 4.8 01:45:40 26° ENE 01:45:40 26° ENE 01:48:26 10° NNE visible
05 Aug 4.5 03:22:35 25° WNW 03:22:35 25° WNW 03:25:54 10° NNW visible
06 Aug 4.3 01:59:17 38° NE 01:59:17 38° NE 02:02:20 10° NNE visible
06 Aug 5.1 03:36:11 16° WNW 03:36:11 16° WNW 03:38:46 10° NNW visible
07 Aug 4.0 02:12:52 46° NNE 02:12:52 46° NNE 02:16:01 10° N visible
08 Aug 5.7 00:49:33 12° ENE 00:49:33 12° ENE 00:50:12 10° NE visible
08 Aug 4.2 02:26:27 40° NNW 02:26:27 40° NNW 02:29:32 10° N visible
09 Aug 5.3 01:03:07 18° ENE 01:03:07 18° ENE 01:04:49 10° NE visible
09 Aug 4.6 02:40:02 29° NW 02:40:02 29° NW 02:42:52 10° N visible
10 Aug 5.0 01:16:41 25° NE 01:16:41 25° NE 01:18:52 10° NNE visible
10 Aug 5.1 02:53:35 20° NW 02:53:35 20° NW 02:55:57 10° NNW visible
11 Aug 4.7 01:30:14 31° NNE 01:30:14 31° NNE 01:32:40 10° NNE visible
11 Aug 5.5 03:07:08 13° NW 03:07:08 13° NW 03:08:32 10° NW visible
12 Aug 4.6 01:43:47 33° N 01:43:47 33° N 01:46:16 10° N visible
